Wind_Speed
24 23 23 23 22 21 21 21 21 20 20 20 19 19 19 20 20 20 20 20 20 20 20 20 21 21 22 23 23 24 24 24 23 24 24 25 27 27 27 28 28 29 30
22 22 22 22 22 21 21 21 20 20 19 19 19 19 18 18 19 19 19 19 19 18 18 19 20 20 21 22 22 23 23 23 24 24 24 24 25 25 26 27 28 29 29
21 20 21 22 21 21 21 20 19 19 19 19 19 18 18 17 17 17 18 18 17 17 17 18 19 19 20 20 20 21 22 23 23 24 24 24 25 25 26 27 27 27 27
20 20 21 21 21 20 20 19 18 18 19 18 17 16 16 16 15 15 15 16 16 17 17 18 18 17 18 19 20 21 21 22 23 23 24 23 24 24 24 25 25 26 26
19 20 21 21 20 20 19 18 18 18 17 17 17 16 16 14 13 14 15 15 15 15 15 16 16 16 17 18 19 19 20 20 21 22 22 22 23 23 23 23 23 23 24
19 19 19 20 20 19 18 18 17 16 16 17 16 15 15 14 14 14 15 15 14 14 14 14 15 15 16 17 18 19 19 19 19 20 20 21 22 22 22 22 21 21 21
19 18 18 18 18 17 17 15 16 16 16 16 15 15 15 14 14 14 15 14 14 14 14 14 15 16 17 17 17 18 18 18 19 19 20 20 20 20 20 20 20 20 21
18 17 17 17 17 16 15 15 15 16 16 16 15 14 14 14 15 15 15 15 14 14 14 15 16 16 16 16 16 17 17 18 19 19 20 19 19 19 20 20 20 21 21
16 16 16 16 16 15 14 13 15 16 16 15 15 16 15 15 16 16 15 15 15 15 15 15 16 16 16 17 17 17 17 18 18 19 19 19 20 20 21 21 21 20 20
15 15 16 16 16 16 15 15 15 15 15 15 15 16 16 15 15 15 16 16 16 16 16 15 15 15 16 17 17 18 18 18 18 18 19 19 20 21 21 21 20 20 20
15 15 16 15 15 15 15 15 15 15 14 14 14 15 16 16 15 15 16 17 16 16 16 15 15 16 16 17 17 18 18 18 18 18 19 20 20 21 21 20 20 20 21
15 16 16 15 14 14 14 14 14 14 15 15 15 15 16 16 16 15 16 16 16 16 15 16 16 16 16 17 18 19 19 18 19 19 19 20 20 21 21 21 20 21 21
14 14 14 14 13 13 13 13 13 14 15 15 15 16 17 16 16 15 16 16 16 16 16 16 16 16 17 17 18 19 19 19 20 20 20 20 21 22 22 22 21 21 21
13 12 12 12 13 13 13 12 13 14 15 15 16 17 17 17 16 16 16 16 16 17 17 17 17 18 17 19 20 21 20 21 22 22 21 22 22 23 23 22 22 20 20
12 12 11 12 12 12 12 12 13 14 14 15 16 16 17 17 16 16 17 16 17 18 18 18 18 18 18 19 21 21 21 22 22 22 22 22 22 23 23 23 22 21 21
11 11 11 12 11 10 10 11 12 13 14 14 15 16 16 17 17 17 17 17 17 18 19 20 20 20 20 21 21 22 23 23 23 23 23 23 23 23 24 23 22 22 22
11 10 11 10 9 9 9 10 11 12 13 14 15 16 16 17 17 17 17 18 18 19 19 20 20 21 21 22 23 23 24 25 24 24 24 24 24 24 24 24 23 23 22
11 10 9 9 8 8 9 9 10 10 12 13 14 14 15 16 17 17 17 18 18 19 20 21 21 22 22 22 23 24 25 26 25 24 24 24 25 25 25 25 23 22 22
11 10 9 8 7 8 8 9 9 9 11 12 13 14 15 16 17 17 17 18 19 19 20 21 22 23 23 23 24 25 25 26 26 25 25 25 26 26 26 25 23 22 22
11 9 8 7 8 8 8 8 8 9 10 11 13 14 15 16 17 17 18 19 19 20 20 21 22 23 23 24 25 26 26 27 27 27 27 26 26 26 25 25 24 24 23
11 10 9 8 8 7 8 8 8 9 10 11 12 13 15 16 17 18 18 19 20 20 21 22 23 23 24 25 26 27 28 28 28 28 27 27 27 26 25 25 25 25 24
11 11 10 9 8 8 8 8 8 9 9 10 12 13 14 15 16 17 18 19 20 21 21 22 23 24 25 26 27 28 29 29 29 29 28 27 27 27 26 26 26 25 25
11 11 10 9 8 8 9 8 8 8 9 10 11 12 13 15 16 16 17 18 20 21 22 23 24 25 25 26 27 28 29 29 29 29 29 28 28 28 27 27 27 26 26
12 11 10 9 8 8 8 8 8 8 8 10 10 12 13 14 16 17 17 18 19 20 22 23 24 25 26 27 28 28 29 29 30 31 30 29 29 28 28 27 27 26 26
12 11 10 9 9 9 9 8 8 9 9 10 10 12 12 13 15 16 17 18 19 20 21 23 24 25 26 27 28 29 29 30 31 31 31 30 30 30 29 28 28 27 26
11 11 10 10 10 9 9 8 8 9 9 10 11 12 12 14 15 16 17 18 19 20 21 23 24 25 26 27 28 28 29 30 31 32 31 31 31 30 30 30 30 29 28
Wind_Direction
325 325 327 328 327 326 325 324 322 319 318 316 312 307 303 302 299 297 297 296 293 292 290 289 290 288 284 283 283 285 287 288 288 288 287 285 285 282 281 279 278 277 275
326 326 328 330 329 326 324 324 324 324 323 320 316 313 309 306 303 302 301 302 298 295 294 293 293 292 289 287 286 287 289 290 290 290 289 289 288 286 283 281 280 279 276
326 325 327 330 330 328 325 326 327 326 325 324 320 317 314 311 309 308 306 307 303 299 298 296 295 294 295 293 291 291 291 292 293 292 292 292 290 287 285 283 282 280 277
326 325 327 328 329 330 332 330 330 329 328 327 325 322 321 319 317 314 314 311 306 303 301 300 299 297 297 296 297 296 294 295 295 295 293 292 293 293 292 289 286 283 281
328 326 327 328 329 329 330 331 333 333 333 332 330 328 326 327 325 321 316 314 311 310 309 308 308 306 302 299 298 299 299 299 301 300 298 298 297 297 297 297 294 291 286
328 328 328 329 329 331 331 332 335 336 335 335 334 334 337 338 336 332 326 325 324 322 321 319 318 316 313 308 305 306 306 306 305 305 305 302 298 297 297 297 295 293 291
330 329 330 332 332 333 336 339 340 341 341 342 343 344 344 344 341 338 337 332 326 326 325 324 324 322 320 315 311 312 312 314 314 311 308 307 303 300 300 301 299 296 295
334 334 333 333 335 336 339 340 341 343 347 347 346 345 343 343 344 342 338 336 334 334 331 327 324 322 321 320 316 316 317 318 317 315 314 312 310 307 304 304 303 298 295
338 340 340 341 344 342 340 342 345 347 347 346 347 348 349 347 346 345 347 346 344 340 337 334 330 328 326 323 321 323 322 321 321 320 317 314 311 310 307 305 303 300 297
344 345 344 344 347 349 350 348 348 349 348 348 349 349 350 349 348 349 352 351 347 345 343 341 338 335 333 331 329 329 328 326 324 322 320 318 316 315 313 310 305 302 301
343 345 346 347 348 352 354 353 353 354 354 353 350 348 349 349 349 351 353 352 349 348 347 346 344 341 338 336 333 333 334 333 330 326 324 323 320 319 316 313 307 303 303
341 343 347 349 351 352 355 356 358 359 359 359 357 354 354 354 354 356 357 355 353 351 350 350 350 348 345 342 341 340 341 339 335 332 329 329 326 323 321 318 314 310 308
340 342 347 352 353 356 358 359 1 2 2 3 2 360 359 360 1 3 2 358 355 354 354 353 352 351 350 350 349 347 345 343 341 337 334 333 331 329 327 324 321 318 314
339 343 347 351 353 355 356 -0 3 3 5 6 6 4 3 3 4 5 3 1 1 359 357 356 355 353 352 352 352 350 348 347 345 342 339 337 335 333 330 328 325 321 319
333 336 341 346 350 354 357 0 2 3 5 5 6 6 7 8 7 6 6 5 2 0 359 359 358 356 356 354 353 352 349 346 345 343 341 339 338 338 336 332 328 325 323
329 333 335 340 345 354 360 0 2 4 6 7 8 8 9 8 8 7 7 6 4 2 2 1 359 358 357 356 354 353 351 348 346 344 344 343 342 341 339 336 332 329 326
323 327 330 335 340 349 356 359 1 4 7 9 10 10 9 8 9 9 7 6 5 4 4 2 0 358 355 354 354 353 351 349 346 343 343 343 343 343 343 340 337 334 331
316 320 323 326 332 340 346 351 354 357 1 4 5 5 6 6 5 3 4 3 3 2 2 1 360 358 356 355 354 353 351 350 347 346 345 345 345 344 344 343 340 338 335
309 311 315 319 323 330 337 343 347 350 353 356 359 1 2 3 2 1 1 1 1 1 0 0 360 359 359 359 357 354 352 351 350 349 349 347 347 346 346 345 344 342 339
300 303 306 305 311 321 331 337 340 342 345 349 352 356 359 360 1 2 2 2 1 360 359 359 359 359 360 358 357 355 355 353 351 350 350 350 349 348 347 346 344 342 341
291 293 295 293 297 310 323 328 331 333 337 341 346 350 355 357 0 2 2 2 2 1 0 360 359 359 359 358 356 354 354 353 353 354 354 353 351 349 347 346 345 345 344
285 288 289 288 292 301 311 316 321 328 335 338 341 345 351 355 359 0 360 0 2 3 4 2 1 359 358 357 357 356 356 357 357 357 357 355 354 352 350 348 346 346 345
278 279 281 283 286 292 300 305 312 319 325 330 334 340 346 350 354 356 357 357 360 1 2 1 0 360 360 359 358 358 358 358 359 358 357 355 354 353 352 351 350 350 349
272 271 272 274 279 286 292 296 302 309 316 324 331 337 341 345 349 353 356 356 357 359 0 1 1 359 359 359 359 359 358 358 358 358 357 355 354 352 351 350 349 349 350
266 263 261 266 275 281 284 286 294 300 308 317 327 334 338 342 346 349 352 352 352 353 355 357 358 359 359 359 359 359 359 359 358 358 358 356 355 355 355 354 352 349 348
261 258 257 264 273 275 276 279 285 294 302 310 319 327 333 337 341 344 347 348 348 349 351 353 354 355 356 357 357 358 358 358 358 358 358 359 358 358 357 356 355 353 350
Height
5761 5757 5754 5750 5745 5742 5739 5735 5732 5729 5725 5723 5720 5719 5717 5715 5713 5712 5711 5709 5708 5706 5705 5704 5703 5702 5701 5700 5699 5698 5697 5695 5694 5693 5691 5690 5689 5687 5686 5685 5684 5683 5682
5758 5754 5751 5747 5743 5739 5736 5732 5729 5726 5723 5720 5717 5715 5713 5711 5709 5707 5706 5704 5702 5701 5699 5698 5697 5696 5695 5694 5693 5691 5690 5688 5687 5685 5684 5682 5681 5679 5677 5676 5674 5673 5672
5755 5752 5749 5745 5741 5737 5733 5729 5726 5723 5720 5717 5714 5712 5710 5707 5705 5703 5701 5699 5697 5696 5695 5693 5692 5690 5689 5688 5686 5685 5683 5681 5680 5678 5676 5674 5673 5671 5669 5667 5665 5664 5663
5753 5749 5746 5743 5739 5735 5731 5728 5724 5721 5718 5714 5711 5709 5706 5704 5702 5699 5697 5695 5693 5692 5690 5688 5686 5685 5684 5682 5681 5679 5677 5675 5673 5671 5669 5667 5665 5663 5660 5658 5657 5656 5654
5750 5747 5743 5740 5736 5733 5729 5726 5722 5719 5715 5712 5709 5706 5704 5701 5699 5696 5695 5692 5690 5688 5686 5683 5681 5680 5678 5677 5675 5673 5671 5669 5667 5665 5663 5660 5658 5656 5653 5651 5649 5648 5646
5747 5744 5741 5738 5734 5731 5728 5724 5721 5717 5714 5710 5707 5704 5701 5699 5696 5694 5692 5689 5687 5685 5682 5680 5678 5676 5674 5672 5670 5668 5666 5663 5661 5659 5657 5654 5651 5649 5646 5643 5641 5640 5639
5744 5742 5739 5736 5732 5729 5726 5723 5720 5716 5713 5709 5706 5703 5700 5698 5695 5693 5690 5687 5684 5682 5679 5677 5675 5672 5670 5667 5665 5663 5660 5658 5656 5653 5651 5648 5645 5642 5640 5637 5635 5633 5632
5742 5740 5737 5734 5731 5728 5724 5722 5719 5715 5712 5708 5706 5703 5700 5697 5694 5691 5688 5685 5682 5679 5676 5674 5671 5669 5666 5664 5661 5659 5656 5653 5651 5648 5645 5642 5639 5636 5634 5632 5629 5628 5625
5741 5738 5736 5733 5729 5726 5723 5721 5718 5715 5712 5709 5706 5702 5699 5696 5693 5690 5687 5684 5680 5677 5674 5671 5668 5666 5663 5660 5658 5655 5652 5650 5646 5643 5640 5637 5634 5631 5628 5626 5624 5622 5619
5740 5738 5735 5732 5729 5726 5723 5720 5717 5714 5711 5708 5705 5702 5698 5695 5692 5689 5685 5682 5679 5676 5672 5669 5666 5663 5660 5657 5655 5652 5649 5646 5643 5640 5636 5633 5629 5626 5623 5620 5617 5615 5613
5739 5737 5734 5731 5728 5725 5723 5720 5717 5714 5711 5708 5704 5701 5698 5694 5691 5688 5684 5681 5677 5674 5671 5667 5664 5661 5658 5655 5652 5649 5646 5642 5639 5636 5632 5629 5625 5621 5618 5615 5611 5608 5606
5739 5736 5733 5731 5728 5726 5723 5720 5717 5714 5711 5708 5704 5700 5697 5693 5690 5686 5683 5680 5677 5673 5670 5667 5663 5660 5656 5653 5650 5647 5643 5639 5635 5632 5628 5624 5620 5616 5613 5609 5605 5602 5600
5738 5735 5733 5731 5728 5726 5723 5720 5717 5714 5711 5708 5704 5700 5696 5693 5689 5686 5683 5680 5676 5673 5670 5666 5663 5659 5656 5652 5649 5645 5641 5637 5633 5628 5624 5620 5616 5612 5608 5604 5600 5597 5594
5737 5735 5733 5730 5728 5725 5723 5720 5718 5715 5711 5708 5704 5700 5697 5693 5690 5686 5683 5680 5676 5673 5669 5666 5662 5659 5655 5651 5647 5643 5639 5634 5630 5626 5621 5617 5612 5608 5603 5599 5595 5592 5589
5736 5734 5732 5730 5727 5725 5722 5720 5717 5715 5711 5708 5705 5701 5698 5694 5690 5687 5683 5680 5676 5673 5669 5666 5662 5658 5654 5651 5646 5642 5637 5633 5628 5623 5619 5614 5609 5604 5600 5595 5591 5587 5584
5734 5732 5730 5728 5726 5724 5722 5720 5718 5715 5712 5709 5706 5702 5699 5695 5691 5687 5684 5680 5677 5673 5670 5666 5661 5657 5653 5649 5645 5641 5636 5631 5626 5621 5616 5611 5606 5601 5596 5592 5587 5583 5580
5732 5730 5729 5727 5725 5723 5722 5720 5718 5716 5713 5710 5707 5703 5699 5696 5692 5689 5685 5681 5678 5674 5670 5665 5661 5657 5653 5648 5644 5639 5634 5628 5623 5618 5613 5608 5603 5598 5593 5588 5584 5580 5575
5730 5728 5727 5725 5724 5722 5721 5719 5717 5715 5713 5710 5707 5704 5701 5697 5693 5690 5686 5682 5678 5674 5669 5665 5661 5656 5652 5647 5642 5637 5632 5627 5621 5616 5610 5605 5600 5595 5590 5585 5580 5576 5572
5727 5726 5724 5723 5722 5721 5720 5718 5717 5715 5713 5710 5708 5704 5701 5697 5694 5690 5686 5682 5678 5674 5669 5665 5660 5656 5651 5646 5641 5636 5631 5625 5620 5614 5609 5603 5598 5593 5588 5582 5577 5573 5568
5724 5723 5722 5721 5721 5719 5718 5717 5716 5714 5712 5710 5707 5704 5701 5698 5694 5690 5686 5682 5678 5673 5669 5665 5660 5655 5650 5645 5640 5635 5629 5624 5618 5612 5607 5601 5596 5590 5585 5580 5575 5570 5565
5721 5720 5720 5719 5719 5718 5716 5715 5714 5712 5711 5709 5706 5704 5701 5697 5694 5690 5686 5682 5678 5673 5669 5664 5660 5655 5650 5645 5639 5634 5628 5622 5616 5610 5604 5599 5593 5588 5583 5578 5572 5567 5562
5717 5717 5717 5716 5716 5715 5714 5713 5712 5711 5709 5707 5705 5703 5700 5697 5693 5690 5686 5682 5678 5673 5669 5664 5659 5654 5649 5644 5638 5633 5627 5621 5615 5609 5603 5597 5592 5586 5581 5575 5570 5565 5560
5713 5713 5713 5713 5713 5712 5712 5711 5710 5709 5708 5706 5704 5702 5699 5696 5692 5689 5685 5682 5678 5673 5669 5664 5659 5654 5649 5643 5638 5632 5626 5620 5614 5608 5602 5596 5590 5584 5579 5573 5568 5562 5557
5709 5709 5710 5710 5709 5709 5709 5708 5708 5707 5706 5704 5702 5700 5698 5695 5692 5688 5684 5680 5677 5673 5668 5664 5659 5654 5648 5643 5638 5632 5626 5619 5613 5607 5601 5595 5589 5583 5577 5571 5565 5560 5554
5705 5706 5706 5706 5706 5706 5706 5705 5705 5704 5703 5702 5700 5698 5696 5693 5690 5687 5684 5680 5676 5672 5668 5663 5658 5653 5648 5643 5637 5631 5625 5619 5613 5606 5600 5594 5588 5581 5575 5569 5563 5558 5552
5701 5701 5702 5702 5702 5702 5702 5702 5702 5701 5701 5699 5698 5696 5694 5692 5689 5686 5682 5679 5675 5671 5667 5662 5657 5652 5647 5642 5636 5630 5624 5618 5612 5606 5599 5593 5587 5580 5574 5568 5562 5556 5550